Regional Weather Roundup
Issued by NWS

Home | Current Version | Previous Version | Graphics & Text | Print | Product List | Glossary On
Versions: 1 2 3 4 5 6 7 8 9 10 11 12 13 14 15 16 17 18 19 20 21 22 23 24 25 26 27 28 29 30 31 32 33 34 35 36 37 38 39 40 41 42 43 44 45 46 47 48 49 50
000
ASUS43 KOAX 281502
RWRNE

WEATHER ROUNDUP FOR NEBRASKA
NATIONAL WEATHER SERVICE OMAHA NE
1000 AM CDT THU JUL 28 2016

NOTES: SATELLITE DATA IS BEING USED TO AUGMENT CLOUD COVER ABOVE
       12000 FEET.
       "FAIR" INDICATES FEW OR NO CLOUDS BELOW 12,000 FEET WITH NO
       SIGNIFICANT WEATHER AND/OR OBSTRUCTIONS TO VISIBILITY.

  * THESE STATIONS DO NOT REPORT WEATHER SUCH AS RAIN...SNOW OR FOG.

NEZ001>004-019>022-054>056-281600-
NEBRASKA PANHANDLE

CITY           SKY/WX    TMP DP  RH WIND       PRES   REMARKS
SCOTTSBLUFF    CLOUDY    66  55  67 SE10      30.16F
ALLIANCE       TSTM      59  57  93 SE16      30.14S FOG
CHADRON        LGT RAIN  64  58  80 NW13G24   30.18R
SIDNEY         PTSUNNY   64  61  90 E15       30.18F
$$

NEZ057>060-069>072-079>082-281600-
SOUTHWEST NEBRASKA

CITY           SKY/WX    TMP DP  RH WIND       PRES   REMARKS
NORTH PLATTE   TSTM      63  61  93 NW13      30.21R FOG
IMPERIAL       CLOUDY    67  63  87 E13       30.13F
LEXINGTON      MOSUNNY   70  63  80 E5        30.13R
MCCOOK         MOSUNNY   73  62  68 NE10      30.14R
OGALLALA       CLOUDY    65  61  85 E12       30.12F
$$

NEZ005>010-023>029-035>040-094-281600-
NORTH CENTRAL NEBRASKA

CITY           SKY/WX    TMP DP  RH WIND       PRES   REMARKS
VALENTINE      CLOUDY    63  59  87 CALM      30.13R FOG
AINSWORTH      CLOUDY    64  64 100 SE5       30.13F
BROKEN BOW     CLOUDY    68  64  87 N3        30.14R
O`NEILL        MOSUNNY   72  61  70 CALM      30.13S
ORD            PTSUNNY   72  62  71 E6        30.11R
THEDFORD       RAIN      63  61  93 S17       30.10F
$$

NEZ041-046>049-061>064-073>077-083>087-281600-
SOUTH CENTRAL NEBRASKA

CITY           SKY/WX    TMP DP  RH WIND       PRES   REMARKS
GRAND ISLAND   SUNNY     74  65  73 VRB6      30.09F
AURORA         SUNNY     73  68  83 NE6       30.08F
HASTINGS       SUNNY     72  65  78 NE7       30.09F
HEBRON         MOSUNNY   75  66  72 NE5       30.05F
HOLDREGE       SUNNY     71  64  80 NE6       30.10F
KEARNEY *      SUNNY     73  16  11 E7        30.12R
YORK           SUNNY     75  66  73 NE6       30.08F
$$

NEZ011>018-030>034-042>045-281600-
NORTHEAST NEBRASKA

CITY           SKY/WX    TMP DP  RH WIND       PRES   REMARKS
NORFOLK        SUNNY     74  61  63 NE6       30.08F
ALBION         MOSUNNY   72  64  75 E5        30.10S
BLAIR          SUNNY     74  67  76 N8        30.05S
FREMONT        SUNNY     75  65  71 N6        30.06S
TEKAMAH        SUNNY     76  66  71 N9        30.05S
WAYNE          SUNNY     73  64  71 N7        30.08F
$$

NEZ050>053-065>068-078-088>093-281600-
SOUTHEAST NEBRASKA

CITY           SKY/WX    TMP DP  RH WIND       PRES   REMARKS
LINCOLN        SUNNY     78  68  71 NE7       30.05R
OMAHA EPPLEY   MOSUNNY   77  68  73 N9        30.03S
BEATRICE       SUNNY     76  68  75 NE3       30.03F
FALLS CITY     SUNNY     78  70  76 N7        30.00S
NEBRASKA CITY  SUNNY     76  69  78 NE6       30.03S
PLATTSMOUTH    MOSUNNY   76  66  70 N6        30.03S
$$

NEZ044-045-051>053-067-281600-
OMAHA AREA

CITY           SKY/WX    TMP DP  RH WIND       PRES   REMARKS
OMAHA EPPLEY   MOSUNNY   77  68  73 N9        30.03S
BLAIR          SUNNY     74  67  76 N8        30.05S
FREMONT        SUNNY     75  65  71 N6        30.06S
MILLARD        SUNNY     77  66  68 NE3       30.03S
PLATTSMOUTH    MOSUNNY   76  66  70 N6        30.03S
WAHOO          FAIR      76  66  72 NE5       30.05S
$$




USA.gov is the U.S. government's official web portal to all federal, state and local government web resources and services.